This is the latest recevied weather packets stored in our database for station/object N2XP. If no packets are shown the sender has not sent any weather packets the latest 10 day(s).
| Time | Temp. | Humidity | Pressure | Rain* | Wind** | Luminosity | Snow |
|---|---|---|---|---|---|---|---|
| 1777538737 | 7.78° C | 97% | 1005.2 hPa | 0 mm | - | - | - |
| 1777537833 | 7.78° C | 96% | 1005.3 hPa | 0 mm | - | - | - |
| 1777536934 | 7.78° C | 96% | 1005.4 hPa | 0 mm | - | - | - |
| 1777536092 | 7.78° C | 96% | 1005.5 hPa | 0 mm | - | - | - |
| 1777535169 | 7.78° C | 96% | 1005.5 hPa | 0 mm | - | - | - |
| 1777534259 | 7.78° C | 96% | 1005.7 hPa | 0 mm | - | - | - |
| 1777533360 | 7.78° C | 96% | 1005.7 hPa | 0.25 mm | - | - | - |
| 1777532459 | 7.78° C | 96% | 1005.8 hPa | 0.25 mm | - | - | - |
| 1777531567 | 7.78° C | 96% | 1006.1 hPa | 0.25 mm | - | - | - |
| 1777530653 | 7.78° C | 96% | 1006.1 hPa | 0.25 mm | - | - | - |
| 1777529751 | 7.78° C | 96% | 1006.4 hPa | 0.25 mm | - | - | - |
| 1777528847 | 7.78° C | 96% | 1006.6 hPa | 0.76 mm | - | - | - |
| 1777527959 | 7.78° C | 96% | 1006.7 hPa | 1.78 mm | - | - | - |
| 1777527044 | 7.78° C | 96% | 1006.9 hPa | 2.29 mm | - | - | - |
| 1777526152 | 7.78° C | 96% | 1006.9 hPa | 3.3 mm | - | - | - |
| 1777525255 | 7.78° C | 96% | 1006.9 hPa | 4.32 mm | - | - | - |
| 1777524347 | 7.78° C | 96% | 1007.1 hPa | 4.32 mm | - | - | - |
| 1777523451 | 7.78° C | 95% | 1007.2 hPa | 4.32 mm | - | - | - |
| 1777522539 | 7.78° C | 95% | 1007 hPa | 3.3 mm | - | - | - |
| 1777521640 | 7.78° C | 95% | 1007.7 hPa | 2.29 mm | - | - | - |
| 1777520733 | 7.78° C | 95% | 1007.7 hPa | 1.02 mm | - | - | - |
| 1777519835 | 7.78° C | 95% | 1007.7 hPa | 1.02 mm | - | - | - |
| 1777518933 | 7.78° C | 94% | 1007.9 hPa | 1.52 mm | - | - | - |
| 1777518031 | 7.78° C | 94% | 1008 hPa | 2.29 mm | - | - | - |
| 1777517134 | 8.33° C | 94% | 1007.9 hPa | 3.3 mm | - | - | - |
* Rain latest hour (hover to see other rain measurements)
** Current wind speed in m/s (hover to see current wind gust speed)